• In Czech Republic
  • List of Countries
  • For 7 days
  • Water Temperature
  • Satellite Maps
  • Weather Map
  • Weather Widgets
  • user-avatar
    Login

    Hourly Weather Diapaga

    Today, 16 October, Tuesday

    Time Temperature Precipitation Wind Pressure Humidity
    00:00 +31°C° 0 mm 1 mps 736 mmHg 54%
    01:00 +31°C° 0 mm 1 mps 736 mmHg 55%
    02:00 +30°C° 0 mm 1 mps 735 mmHg 57%
    03:00 +30°C° 0 mm 1 mps 735 mmHg 58%
    04:00 +30°C° 0 mm 1 mps 735 mmHg 59%
    05:00 +30°C° 0 mm 1 mps 735 mmHg 60%
    06:00 +29°C° 0 mm 1 mps 735 mmHg 62%
    07:00 +32°C° 0 mm 1 mps 736 mmHg 54%
    08:00 +34°C° 0 mm 1 mps 736 mmHg 46%
    09:00 +37°C° 0 mm 1 mps 737 mmHg 38%
    10:00 +39°C° 0 mm 2 mps 736 mmHg 33%
    11:00 +41°C° 0 mm 2 mps 736 mmHg 28%
    12:00 +43°C° 0 mm 3 mps 735 mmHg 23%
    13:00 +43°C° 0 mm 3 mps 735 mmHg 23%
    14:00 +41°C° 0 mm 2 mps 734 mmHg 24%
    15:00 +40°C° 0 mm 2 mps 733 mmHg 25%
    16:00 +39°C° 0 mm 2 mps 733 mmHg 27%
    17:00 +37°C° 0 mm 1 mps 733 mmHg 28%
    18:00 +36°C° 0 mm 1 mps 734 mmHg 30%
    19:00 +35°C° 0 mm 1 mps 734 mmHg 32%
    20:00 +35°C° 0 mm 1 mps 735 mmHg 34%
    21:00 +34°C° 0 mm 1 mps 735 mmHg 36%
    22:00 +34°C° 0 mm 2 mps 735 mmHg 38%
    23:00 +34°C° 0 mm 2 mps 735 mmHg 40%

    Tomorrow, 17 October, Wednesday

    Time Temperature Precipitation Wind Pressure Humidity
    00:00 +32°C° 0 mm 2 mps 735 mmHg 43%
    01:00 +32°C° 0 mm 2 mps 734 mmHg 45%
    02:00 +31°C° 0 mm 2 mps 734 mmHg 48%
    03:00 +30°C° 0 mm 3 mps 734 mmHg 51%
    04:00 +30°C° 0 mm 3 mps 734 mmHg 55%
    05:00 +30°C° 0 mm 3 mps 734 mmHg 60%
    06:00 +29°C° 0 mm 3 mps 734 mmHg 64%
    07:00 +31°C° 0 mm 3 mps 735 mmHg 59%
    08:00 +33°C° 0 mm 4 mps 735 mmHg 54%
    09:00 +35°C° 0 mm 4 mps 736 mmHg 50%
    10:00 +37°C° 0 mm 4 mps 735 mmHg 44%
    11:00 +39°C° 0 mm 3 mps 735 mmHg 38%
    12:00 +41°C° 0 mm 2 mps 734 mmHg 32%
    13:00 +41°C° 0 mm 2 mps 734 mmHg 30%
    14:00 +40°C° 0 mm 1 mps 733 mmHg 29%
    15:00 +40°C° 0 mm 1 mps 732 mmHg 28%
    16:00 +39°C° 0.1 mm 1 mps 732 mmHg 31%
    17:00 +38°C° 0.1 mm 2 mps 732 mmHg 35%
    18:00 +36°C° 0.1 mm 2 mps 732 mmHg 38%
    19:00 +35°C° 0.5 mm 2 mps 733 mmHg 45%
    20:00 +33°C° 0.5 mm 3 mps 733 mmHg 52%
    21:00 +31°C° 0.5 mm 3 mps 734 mmHg 58%
    22:00 +31°C° 0.1 mm 3 mps 734 mmHg 61%
    23:00 +30°C° 0.1 mm 3 mps 734 mmHg 64%

    Day after tomorrow, 18 October, Thursday

    Time Temperature Precipitation Wind Pressure Humidity
    00:00 +30°C° 0.1 mm 4 mps 734 mmHg 66%
    01:00 +29°C° 0 mm 4 mps 734 mmHg 66%
    02:00 +29°C° 0 mm 4 mps 733 mmHg 67%
    03:00 +28°C° 0 mm 4 mps 733 mmHg 67%
    04:00 +28°C° 0 mm 4 mps 733 mmHg 68%
    05:00 +28°C° 0 mm 4 mps 733 mmHg 69%
    06:00 +27°C° 0 mm 3 mps 733 mmHg 70%
    07:00 +29°C° 0 mm 4 mps 734 mmHg 65%
    08:00 +30°C° 0 mm 4 mps 734 mmHg 60%
    09:00 +33°C° 0 mm 4 mps 735 mmHg 56%
    10:00 +35°C° 0 mm 4 mps 734 mmHg 49%
    11:00 +37°C° 0 mm 4 mps 733 mmHg 42%
    12:00 +39°C° 0 mm 3 mps 733 mmHg 35%
    13:00 +39°C° 0 mm 3 mps 732 mmHg 33%
    14:00 +40°C° 0 mm 2 mps 732 mmHg 30%
    15:00 +41°C° 0 mm 2 mps 731 mmHg 28%
    16:00 +39°C° 0 mm 2 mps 731 mmHg 32%
    17:00 +37°C° 0 mm 3 mps 731 mmHg 37%
    18:00 +36°C° 0 mm 3 mps 732 mmHg 41%
    19:00 +35°C° 0 mm 3 mps 732 mmHg 46%
    20:00 +34°C° 0 mm 3 mps 733 mmHg 51%
    21:00 +33°C° 0 mm 4 mps 733 mmHg 56%
    22:00 +32°C° 0 mm 4 mps 733 mmHg 59%
    23:00 +31°C° 0 mm 3 mps 733 mmHg 61%

    19 October, Friday

    Time Temperature Precipitation Wind Pressure Humidity
    00:00 +30°C° 0 mm 3 mps 733 mmHg 64%
    01:00 +30°C° 0 mm 3 mps 733 mmHg 65%
    02:00 +30°C° 0 mm 3 mps 733 mmHg 66%
    03:00 +29°C° 0 mm 3 mps 733 mmHg 67%
    04:00 +29°C° 0 mm 3 mps 733 mmHg 68%
    05:00 +29°C° 0 mm 3 mps 733 mmHg 69%
    06:00 +29°C° 0 mm 3 mps 734 mmHg 70%
    07:00 +32°C° 0 mm 4 mps 734 mmHg 63%
    08:00 +33°C° 0 mm 4 mps 734 mmHg 55%
    09:00 +35°C° 0 mm 5 mps 735 mmHg 48%
    10:00 +37°C° 0 mm 4 mps 734 mmHg 42%
    11:00 +39°C° 0 mm 3 mps 734 mmHg 35%
    12:00 +41°C° 0 mm 2 mps 733 mmHg 28%
    13:00 +41°C° 0 mm 2 mps 733 mmHg 27%
    14:00 +41°C° 0 mm 2 mps 732 mmHg 26%
    15:00 +40°C° 0 mm 2 mps 731 mmHg 25%
    16:00 +39°C° 0 mm 1 mps 732 mmHg 28%
    17:00 +37°C° 0 mm 1 mps 732 mmHg 30%
    18:00 +36°C° 0 mm 1 mps 732 mmHg 32%
    19:00 +35°C° 0 mm 1 mps 733 mmHg 36%
    20:00 +34°C° 0 mm 1 mps 733 mmHg 39%
    21:00 +35°C° 0 mm 2 mps 734 mmHg 42%
    22:00 +33°C° 0 mm 1 mps 733 mmHg 45%
    23:00 +33°C° 0 mm 1 mps 733 mmHg 48%

    20 October, Saturday

    Time Temperature Precipitation Wind Pressure Humidity
    00:00 +32°C° 0 mm 1 mps 733 mmHg 50%
    01:00 +32°C° 0 mm 2 mps 733 mmHg 52%
    02:00 +31°C° 0 mm 2 mps 732 mmHg 55%
    03:00 +31°C° 0 mm 2 mps 732 mmHg 57%
    04:00 +30°C° 0 mm 2 mps 733 mmHg 58%
    05:00 +30°C° 0 mm 2 mps 733 mmHg 59%
    06:00 +30°C° 0 mm 2 mps 734 mmHg 60%
    07:00 +33°C° 0 mm 3 mps 734 mmHg 54%
    08:00 +35°C° 0 mm 3 mps 735 mmHg 49%
    09:00 +37°C° 0 mm 3 mps 735 mmHg 43%
    10:00 +39°C° 0 mm 2 mps 735 mmHg 37%
    11:00 +41°C° 0 mm 2 mps 734 mmHg 30%
    12:00 +44°C° 0 mm 1 mps 733 mmHg 24%
    13:00 +43°C° 0 mm 1 mps 733 mmHg 24%
    14:00 +42°C° 0 mm 1 mps 732 mmHg 23%
    15:00 +41°C° 0 mm 2 mps 731 mmHg 23%
    16:00 +40°C° 0 mm 2 mps 731 mmHg 24%
    17:00 +39°C° 0 mm 2 mps 732 mmHg 25%
    18:00 +38°C° 0 mm 2 mps 732 mmHg 26%
    19:00 +36°C° 0 mm 2 mps 732 mmHg 28%
    20:00 +35°C° 0 mm 2 mps 732 mmHg 31%
    21:00 +34°C° 0 mm 2 mps 733 mmHg 34%
    22:00 +34°C° 0 mm 2 mps 733 mmHg 38%
    23:00 +32°C° 0 mm 2 mps 732 mmHg 43%

    21 October, Sunday

    Time Temperature Precipitation Wind Pressure Humidity
    00:00 +31°C° 0 mm 2 mps 732 mmHg 47%
    01:00 +30°C° 0 mm 1 mps 732 mmHg 51%
    02:00 +30°C° 0 mm 1 mps 732 mmHg 55%
    03:00 +29°C° 0 mm 1 mps 732 mmHg 59%
    04:00 +29°C° 0 mm 1 mps 732 mmHg 62%
    05:00 +28°C° 0 mm 1 mps 732 mmHg 65%
    06:00 +28°C° 0 mm 1 mps 733 mmHg 68%
    07:00 +30°C° 0 mm 2 mps 733 mmHg 61%
    08:00 +34°C° 0 mm 2 mps 734 mmHg 53%
    09:00 +36°C° 0 mm 2 mps 734 mmHg 46%
    10:00 +38°C° 0 mm 2 mps 734 mmHg 37%
    11:00 +42°C° 0 mm 3 mps 733 mmHg 29%
    12:00 +44°C° 0 mm 3 mps 732 mmHg 20%
    13:00 +44°C° 0 mm 3 mps 732 mmHg 18%
    14:00 +44°C° 0 mm 4 mps 731 mmHg 16%
    15:00 +44°C° 0 mm 4 mps 731 mmHg 14%
    16:00 +42°C° 0 mm 4 mps 731 mmHg 15%
    17:00 +40°C° 0 mm 3 mps 731 mmHg 17%
    18:00 +38°C° 0 mm 3 mps 731 mmHg 19%
    19:00 +36°C° 0 mm 2 mps 732 mmHg 21%
    20:00 +35°C° 0 mm 2 mps 732 mmHg 23%
    21:00 +34°C° 0 mm 2 mps 733 mmHg 25%
    22:00 +32°C° 0 mm 2 mps 732 mmHg 27%
    23:00 +31°C° 0 mm 2 mps 732 mmHg 29%
    Show more